Location: Unspecified
(0.0000°N, 0.0000°E)
Time: 01:29:20
(UTC+02:00)

DELTA 2 R/B (1) - Visible Passes

Search period start: 21 October 2017 00:00
Search period end: 30 October 2017 23:00
Orbit: 791 x 803 km, 39.6° (Epoch: 19 October)

Date Brightness Start Highest point End Pass type
(mag) Time Alt. Az. Time Alt. Az. Time Alt. Az.
25 Oct 5.7 21:44:47 10° NNW 21:45:42 14° NNW 21:45:42 14° NNW visible
26 Oct 4.7 21:14:06 10° NNW 21:17:29 27° NNE 21:17:29 27° NNE visible
27 Oct 4.5 20:43:28 10° NNW 20:48:08 27° NE 20:49:30 24° ENE visible
27 Oct 6.0 22:29:12 10° WNW 22:30:23 16° WNW 22:30:23 16° WNW visible
28 Oct 4.7 20:12:50 10° NNW 20:17:16 24° NE 20:21:43 10° E visible
28 Oct 4.6 21:58:15 10° WNW 22:02:39 44° WSW 22:02:39 44° WSW visible
29 Oct 4.1 20:27:20 10° WNW 20:32:47 55° SW 20:35:09 32° SSE visible
30 Oct 4.0 19:56:26 10° WNW 20:01:56 63° SW 20:07:29 10° SE visible
